[[{"header":{"parameterUnit":"m.s-1","parameterCategory":1,"la1":30.2991,"la2":30.254,"lo1":-89.0895,"lo2":-89.0444,"dy":0.0017,"dx":0.0017,"nx":28,"ny":28,"refTime":"2024-04-30T21:00:00:Z","depth":0,"parameterNumber":2,"parameterNumberName":"U-component_of_WINDS"},"data":[0,0,0,0,0,0,0,0,0,0,0,0,0,0,0,0,0,0,0,0,0,0,0,0,0,0,0,0,0,0,0,0,0,0,0,0,0,0,0,0,0,0,0,0,0,0,0,0,0,0,0,0,0,0,0,0,0,0,-1.5902,-1.5902,0,-1.5895,-1.5895,-1.5895,-1.587,-1.5869,-1.5868,-1.5868,-1.5862,-1.5862,-1.5863,0,0,0,0,0,0,0,0,0,0,0,0,0,-1.5894,-1.5894,-1.5902,-1.5902,-1.5902,-1.5895,-1.5895,-1.5895,-1.587,-1.5869,-1.5868,-1.5868,-1.5862,-1.5862,-1.5863,0,0,0,0,0,0,0,0,0,0,0,0,0,-1.5893,-1.5894,-1.5902,-1.5888,-1.5887,-1.5895,-1.5895,-1.5895,-1.587,-1.5869,-1.5868,-1.5867,-1.5862,-1.5862,-1.5863,-1.5883,0,0,-1.5864,-1.5865,0,0,0,0,0,0,0,0,-1.5893,-1.5894,-1.589,-1.5889,-1.5888,-1.5882,-1.589,-1.5891,-1.587,-1.5876,-1.5868,-1.5867,-1.5869,-1.5869,-1.587,-1.5883,-1.5883,-1.5864,-1.5865,-1.5865,-1.5865,0,0,0,0,0,0,0,-1.5893,-1.5894,-1.5899,-1.589,-1.5889,-1.5883,-1.5882,-1.589,-1.5878,-1.5876,-1.5874,-1.5873,-1.5868,-1.5869,-1.587,-1.5883,-1.5864,-1.5865,-1.5865,-1.5865,-1.5913,-1.5914,0,0,0,0,0,0,-1.5895,-1.5894,-1.5899,-1.5899,-1.5888,-1.5884,-1.5882,-1.5885,-1.5878,-1.5876,-1.5874,-1.5872,-1.5869,-1.5869,-1.5869,-1.5893,-1.5865,-1.5866,-1.5866,-1.5912,-1.5913,-1.5914,0,0,0,0,0,0,-1.5895,-1.5896,-1.59,-1.5896,-1.5896,-1.5885,-1.5888,-1.5885,-1.5886,-1.5876,-1.5874,-1.5877,-1.5868,-1.5868,-1.588,-1.5892,-1.5866,-1.5866,-1.5911,-1.5912,-1.5914,-1.594,0,0,0,0,0,0,-1.5895,-1.5896,-1.5904,-1.5896,-1.5896,-1.591,-1.5888,-1.5886,-1.5887,-1.5884,-1.5879,-1.5877,-1.5868,-1.5879,-1.5881,-1.5893,-1.5867,-1.591,-1.5912,-1.5913,-1.5938,-1.5943,-1.5946,0,0,0,0,0,-1.5895,-1.5912,-1.5904,-1.5905,-1.5905,-1.5911,-1.5911,-1.5899,-1.5888,-1.5896,-1.589,-1.5877,-1.5891,-1.5881,-1.5882,-1.5894,-1.5909,-1.5911,-1.5913,-1.5937,-1.5942,-1.5946,0,0,0,0,0,0,-1.5921,-1.591,-1.5902,-1.5917,-1.5915,-1.5907,-1.5916,-1.5905,-1.5907,-1.5904,-1.589,-1.5889,-1.5903,-1.59,-1.5889,-1.5914,-1.5898,-1.59,-1.5915,-1.592,-1.5924,-1.5924,-1.5867,0,0,0,0,0,-1.5929,-1.5934,-1.5924,-1.5938,-1.5938,-1.5927,-1.5929,-1.5921,-1.5918,-1.5917,-1.5912,-1.591,-1.5914,-1.5917,-1.592,-1.5938,-1.5936,-1.5947,-1.5951,-1.5954,-1.5956,-1.5965,-1.597,-1.5921,-1.5921,-1.5921,0,0,-1.5944,-1.5939,-1.5943,-1.5944,-1.5941,-1.5947,-1.5927,-1.5934,-1.5938,-1.5918,-1.5929,-1.5925,-1.5922,-1.5937,-1.5943,-1.5935,-1.597,-1.5957,-1.596,-1.596,-1.5968,-1.5973,-1.5977,-1.5922,-1.5922,-1.5922,0,0,-1.5975,-1.5972,-1.5983,-1.5981,-1.5977,-1.597,-1.5973,-1.5966,-1.5963,-1.5973,-1.5959,-1.5964,-1.5971,-1.597,-1.597,-1.6001,-1.5989,-1.6002,-1.6022,-1.6031,-1.6035,-1.6038,-1.6049,-1.6053,-1.6005,-1.6005,-1.6005,0,-1.5995,-1.6003,-1.599,-1.5998,-1.5999,-1.5981,-1.5993,-1.5991,-1.5989,-1.599,-1.5981,-1.5989,-1.5986,-1.6,-1.6008,-1.6009,-1.6012,-1.6003,-1.6035,-1.6039,-1.6042,-1.6052,-1.6056,-1.6006,-1.6006,-1.6006,-1.6006,0,-1.6027,-1.6033,-1.6042,-1.604,-1.6042,-1.6052,-1.6041,-1.6044,-1.6036,-1.603,-1.6041,-1.6036,-1.6038,-1.6041,-1.6033,-1.6054,-1.6049,-1.6038,-1.6021,-1.6048,-1.6057,-1.6061,-1.6008,-1.6008,-1.6007,-1.6007,0,0,-1.6074,-1.6065,-1.6069,-1.6067,-1.6062,-1.6067,-1.6076,-1.6077,-1.608,-1.608,-1.6087,-1.6093,-1.6083,-1.6083,-1.6075,-1.6083,-1.6107,-1.6071,-1.607,-1.6077,-1.613,-1.6138,-1.6142,-1.61,-1.6101,-1.6101,-1.613,0,-1.6103,-1.6117,-1.6106,-1.6123,-1.6128,-1.6112,-1.612,-1.6118,-1.6112,-1.6116,-1.611,-1.6115,-1.6101,-1.6101,-1.6109,-1.6103,-1.6118,-1.6101,-1.6106,-1.6107,-1.6107,-1.6147,-1.6156,-1.6183,-1.6133,-1.6134,-1.6135,0,-1.6139,-1.6139,-1.6156,-1.615,-1.6151,-1.6159,-1.6159,-1.6163,-1.6161,-1.6156,-1.6157,-1.6146,-1.6155,-1.6139,-1.6151,-1.614,-1.6142,-1.6139,-1.614,-1.6139,-1.6122,-1.6147,-1.6191,-1.6195,-1.614,-1.614,-1.6139,0,-1.6171,-1.6176,-1.6186,-1.6186,-1.6179,-1.6184,-1.6182,-1.6178,-1.618,-1.6181,-1.6181,-1.6183,-1.6184,-1.6186,-1.6177,-1.6166,-1.619,-1.6173,-1.6186,-1.6186,-1.6191,-1.6191,-1.6235,-1.6194,-1.6194,-1.6193,-1.6193,0,-1.6204,-1.6215,-1.62,-1.6207,-1.6218,-1.6206,-1.6218,-1.6214,-1.6211,-1.6217,-1.6203,-1.6209,-1.6196,-1.62,-1.6193,-1.6204,-1.6205,-1.6201,-1.6199,-1.6202,-1.6202,-1.6203,-1.62,-1.6195,-1.6194,-1.6194,-1.6194,0,-1.6241,-1.6232,-1.6242,-1.6235,-1.6233,-1.6242,-1.6236,-1.6242,-1.6236,-1.6243,-1.6244,-1.6235,-1.6239,-1.623,-1.6233,-1.6228,-1.6243,-1.6238,-1.6244,-1.6242,-1.6256,-1.6254,-1.6301,-1.6307,-1.6262,-1.6262,-1.6263,0,-1.6263,-1.6271,-1.6264,-1.6267,-1.6265,-1.6269,-1.6271,-1.6259,-1.6261,-1.6259,-1.6265,-1.6268,-1.627,-1.6278,-1.6272,-1.6274,-1.6269,-1.6285,-1.6269,-1.6272,-1.6269,-1.6268,-1.6269,-1.6288,-1.6289,-1.6289,-1.629,0,-1.6302,-1.6297,-1.63,-1.6301,-1.6303,-1.6303,-1.6302,-1.6305,-1.6293,-1.6296,-1.63,-1.6302,-1.6305,-1.6308,-1.6309,-1.6307,-1.6296,-1.6295,-1.6298,-1.6301,-1.6304,-1.6302,-1.6252,-1.6294,-1.6293,-1.6293,-1.6293,-1.6293,-1.6332,-1.6338,-1.6334,-1.6337,-1.6336,-1.6335,-1.634,-1.6335,-1.6338,-1.6339,-1.6332,-1.6338,-1.6335,-1.6336,-1.6334,-1.6339,-1.6331,-1.6336,-1.6337,-1.6338,-1.634,-1.6303,-1.6339,-1.6339,-1.6339,-1.6339,-1.6339,0,-1.637,-1.6367,-1.637,-1.6369,-1.6372,-1.6361,-1.636,-1.6363,-1.6368,-1.6366,-1.6368,-1.6373,-1.6376,-1.637,-1.6373,-1.6377,-1.6372,-1.6378,-1.6377,-1.6377,-1.6347,-1.6344,-1.6382,-1.6382,-1.6382,-1.6382,-1.6382,-1.6382,-1.639,-1.64,-1.6395,-1.6403,-1.64,-1.6405,-1.6405,-1.6405,-1.6403,-1.6409,-1.6411,-1.6407,-1.6404,-1.6406,-1.6408,-1.6407,-1.6408,-1.6415,-1.6412,-1.6383,-1.6379,-1.6375,-1.6372,-1.6416,-1.6416,-1.6441,-1.6442,-1.6442]},{"header":{"parameterUnit":"m.s-1","parameterCategory":1,"la1":30.2991,"la2":30.254,"lo1":-89.0895,"lo2":-89.0444,"dy":0.0017,"dx":0.0017,"nx":28,"ny":28,"refTime":"2024-04-30T21:00:00:Z","depth":0,"parameterNumber":3,"parameterNumberName":"V-component_of_WINDS"},"data":[0,0,0,0,0,0,0,0,0,0,0,0,0,0,0,0,0,0,0,0,0,0,0,0,0,0,0,0,0,0,0,0,0,0,0,0,0,0,0,0,0,0,0,0,0,0,0,0,0,0,0,0,0,0,0,0,0,0,2.7896,2.7897,0,2.7961,2.7962,2.7963,2.7948,2.7947,2.7945,2.7944,2.8008,2.8011,2.8014,0,0,0,0,0,0,0,0,0,0,0,0,0,2.7757,2.776,2.7896,2.7897,2.7898,2.7961,2.7962,2.7963,2.7948,2.7947,2.7945,2.7944,2.8007,2.801,2.8014,0,0,0,0,0,0,0,0,0,0,0,0,0,2.7819,2.7761,2.7896,2.7898,2.7899,2.7961,2.7962,2.7963,2.7948,2.7947,2.7945,2.7943,2.8006,2.801,2.8014,2.8077,0,0,2.8027,2.8029,0,0,0,0,0,0,0,0,2.7816,2.7825,2.7897,2.7898,2.7899,2.7945,2.7936,2.8001,2.7949,2.793,2.7944,2.7942,2.7988,2.7994,2.801,2.808,2.8083,2.8028,2.803,2.8032,2.8033,0,0,0,0,0,0,0,2.7812,2.7822,2.7922,2.7898,2.7899,2.7895,2.7902,2.7949,2.7968,2.7931,2.793,2.7938,2.7988,2.8006,2.8011,2.8084,2.8028,2.8031,2.8034,2.8036,2.8211,2.8213,0,0,0,0,0,0,2.7807,2.7818,2.792,2.7924,2.7852,2.7899,2.7907,2.7932,2.7968,2.7972,2.794,2.7937,2.8,2.8006,2.8014,2.8091,2.8032,2.8036,2.8039,2.8208,2.8211,2.8213,0,0,0,0,0,0,2.7804,2.7816,2.7917,2.7871,2.7883,2.7904,2.7932,2.7934,2.7952,2.7974,2.7978,2.7954,2.7998,2.8008,2.8062,2.8093,2.8038,2.8042,2.8206,2.8209,2.8212,2.8245,0,0,0,0,0,0,2.78,2.7815,2.784,2.7872,2.7886,2.7965,2.7934,2.7937,2.7959,2.7957,2.7989,2.7992,2.7998,2.8056,2.8066,2.8098,2.8045,2.8203,2.8207,2.8211,2.8241,2.8249,2.8255,0,0,0,0,0,2.7795,2.7845,2.7841,2.7853,2.7917,2.7967,2.7975,2.7981,2.7962,2.7987,2.8001,2.7991,2.8088,2.8062,2.8073,2.8106,2.8201,2.8206,2.8211,2.8238,2.8247,2.8255,0,0,0,0,0,0,2.7815,2.785,2.7845,2.7907,2.7935,2.7965,2.7996,2.7991,2.8023,2.8019,2.8025,2.8032,2.8088,2.8102,2.8073,2.817,2.8142,2.8149,2.8158,2.8167,2.8174,2.817,2.8049,0,0,0,0,0,2.7827,2.7866,2.7893,2.7945,2.796,2.7976,2.7997,2.8,2.8028,2.8039,2.8058,2.8085,2.8121,2.8145,2.8179,2.8243,2.825,2.8272,2.8279,2.8284,2.8291,2.8326,2.8336,2.8229,2.8229,2.8229,0,0,2.7852,2.7875,2.7899,2.795,2.7972,2.8011,2.7985,2.8027,2.8057,2.8045,2.8098,2.8113,2.8143,2.8203,2.823,2.8217,2.8322,2.829,2.8295,2.8298,2.8332,2.8342,2.8351,2.8232,2.8231,2.8231,0,0,2.7917,2.7939,2.7985,2.8008,2.8041,2.8051,2.8062,2.8094,2.8103,2.8157,2.815,2.8184,2.8246,2.8269,2.8288,2.8363,2.8355,2.8374,2.8411,2.8445,2.8454,2.8461,2.8489,2.8499,2.838,2.838,2.838,0,2.7943,2.8003,2.8009,2.8053,2.8076,2.8069,2.8116,2.8137,2.8179,2.8195,2.8179,2.8259,2.8278,2.8344,2.8362,2.8378,2.8391,2.837,2.8452,2.846,2.8467,2.8493,2.8503,2.8382,2.8382,2.8382,2.8382,0,2.8034,2.8076,2.8109,2.8152,2.8178,2.8223,2.8236,2.8262,2.8263,2.8275,2.833,2.8353,2.8393,2.8409,2.8409,2.8474,2.8465,2.8451,2.8423,2.8479,2.8504,2.8514,2.8385,2.8385,2.8384,2.8383,0,0,2.8114,2.816,2.8172,2.8192,2.8229,2.8261,2.8305,2.8346,2.8368,2.8398,2.8435,2.8489,2.8477,2.8499,2.8501,2.8532,2.8591,2.8514,2.8515,2.8528,2.8665,2.8676,2.8688,2.8585,2.8587,2.8589,2.8663,0,2.8183,2.8263,2.827,2.8342,2.8381,2.8375,2.8414,2.844,2.8453,2.8487,2.85,2.8538,2.8519,2.8532,2.8562,2.8577,2.8618,2.8572,2.8621,2.8622,2.8614,2.87,2.8712,2.8781,2.8672,2.8674,2.8675,0,2.8274,2.8308,2.8384,2.8416,2.8433,2.8468,2.8506,2.8539,2.8568,2.8575,2.8601,2.86,2.8645,2.8616,2.8679,2.8647,2.8668,2.8678,2.8681,2.8686,2.8653,2.8709,2.8803,2.8813,2.869,2.8689,2.8688,0,2.8326,2.839,2.8444,2.8461,2.85,2.8525,2.8542,2.857,2.8594,2.8627,2.8642,2.868,2.87,2.8729,2.8738,2.8715,2.8801,2.8772,2.8808,2.8808,2.8827,2.8825,2.8926,2.8839,2.8839,2.8838,2.8838,0,2.8402,2.8449,2.8468,2.8501,2.8554,2.8562,2.8613,2.8629,2.8654,2.869,2.8686,2.872,2.8729,2.8764,2.8771,2.8823,2.8832,2.8839,2.884,2.884,2.8839,2.8854,2.8849,2.8841,2.884,2.884,2.8839,0,2.8469,2.8483,2.8542,2.8574,2.8584,2.8621,2.8648,2.868,2.8692,2.8738,2.8749,2.8768,2.8809,2.8821,2.887,2.8875,2.8936,2.8933,2.8927,2.8927,2.8963,2.896,2.9077,2.9093,2.8994,2.8995,2.8996,0,2.8518,2.8554,2.859,2.8615,2.8633,2.8672,2.8697,2.8706,2.8732,2.877,2.8797,2.8839,2.8872,2.8939,2.8956,2.8994,2.8992,2.903,2.8998,2.8996,2.8994,2.8992,2.8996,2.9037,2.9038,2.9039,2.9039,0,2.8602,2.8608,2.8645,2.8684,2.8714,2.8745,2.8775,2.8795,2.8808,2.8838,2.8881,2.8907,2.8958,2.8999,2.9038,2.9055,2.905,2.9049,2.906,2.906,2.9056,2.9059,2.8944,2.9047,2.9046,2.9045,2.9045,2.9045,2.8662,2.8694,2.8726,2.8767,2.879,2.8819,2.8851,2.8868,2.8904,2.8947,2.895,2.8997,2.9026,2.9078,2.9097,2.9133,2.9122,2.9137,2.9141,2.9144,2.9148,2.9049,2.914,2.914,2.9139,2.9139,2.9139,0,2.8747,2.8768,2.8805,2.8848,2.888,2.8874,2.8906,2.8934,2.8976,2.9004,2.9037,2.9087,2.9127,2.9148,2.9188,2.9213,2.9212,2.9224,2.9222,2.9226,2.9155,2.9143,2.9224,2.9224,2.9224,2.9224,2.9224,2.9224,2.8796,2.8851,2.886,2.8926,2.8946,2.8993,2.9012,2.9038,2.9061,2.9117,2.9151,2.9165,2.9191,2.9232,2.9269,2.9274,2.9289,2.9302,2.9306,2.924,2.9231,2.9223,2.9211,2.9305,2.9305,2.9374,2.9375,2.9375]}]]